When you browse on this site, cookies collect data to enhance your experience and personalize the content and advertising you see.
Visit our Privacy Policy to learn more. By continuing to use the site, you agree to this use of cookies and data.
  • In Lithuania
  • List of Countries
  • For 7 days
  • Water Temperature
  • Weather Map
  • Weather Widgets
  • user-avatar
    Login

    Hourly Weather Oran

    Today, 17 October, Thursday

    Time Temperature Precipitation Wind Pressure Humidity
    00:00 +21°C° 0 mm 1 mps 754 mmHg 63%
    01:00 +21°C° 0 mm 1 mps 753 mmHg 63%
    02:00 +21°C° 0 mm 1 mps 753 mmHg 64%
    03:00 +20°C° 0 mm 1 mps 752 mmHg 65%
    04:00 +20°C° 0 mm 1 mps 753 mmHg 66%
    05:00 +20°C° 0 mm 1 mps 753 mmHg 66%
    06:00 +19°C° 0 mm 2 mps 753 mmHg 68%
    07:00 +20°C° 0 mm 2 mps 753 mmHg 64%
    08:00 +21°C° 0 mm 2 mps 754 mmHg 60%
    09:00 +23°C° 0 mm 2 mps 754 mmHg 56%
    10:00 +24°C° 0 mm 2 mps 754 mmHg 53%
    11:00 +25°C° 0 mm 3 mps 754 mmHg 50%
    12:00 +26°C° 0 mm 3 mps 754 mmHg 47%
    13:00 +26°C° 0 mm 3 mps 753 mmHg 48%
    14:00 +26°C° 0 mm 4 mps 753 mmHg 49%
    15:00 +26°C° 0 mm 4 mps 752 mmHg 50%
    16:00 +25°C° 0 mm 3 mps 753 mmHg 54%
    17:00 +24°C° 0 mm 3 mps 753 mmHg 57%
    18:00 +23°C° 0 mm 2 mps 753 mmHg 61%
    19:00 +23°C° 0 mm 2 mps 753 mmHg 62%
    20:00 +21°C° 0 mm 2 mps 753 mmHg 64%
    21:00 +21°C° 0 mm 2 mps 754 mmHg 65%
    22:00 +21°C° 0 mm 2 mps 754 mmHg 66%
    23:00 +20°C° 0 mm 2 mps 754 mmHg 67%

    Tomorrow, 18 October, Friday

    Time Temperature Precipitation Wind Pressure Humidity
    00:00 +20°C° 0 mm 2 mps 753 mmHg 68%
    01:00 +20°C° 0 mm 2 mps 753 mmHg 69%
    02:00 +19°C° 0 mm 2 mps 753 mmHg 71%
    03:00 +19°C° 0 mm 2 mps 753 mmHg 72%
    04:00 +19°C° 0 mm 2 mps 753 mmHg 73%
    05:00 +18°C° 0 mm 2 mps 753 mmHg 75%
    06:00 +18°C° 0 mm 2 mps 753 mmHg 76%
    07:00 +20°C° 0 mm 2 mps 753 mmHg 69%
    08:00 +22°C° 0 mm 1 mps 753 mmHg 63%
    09:00 +24°C° 0 mm 1 mps 753 mmHg 56%
    10:00 +25°C° 0 mm 2 mps 753 mmHg 51%
    11:00 +26°C° 0 mm 2 mps 753 mmHg 46%
    12:00 +27°C° 0 mm 2 mps 752 mmHg 41%
    13:00 +27°C° 0 mm 3 mps 752 mmHg 40%
    14:00 +27°C° 0 mm 3 mps 752 mmHg 39%
    15:00 +27°C° 0 mm 3 mps 751 mmHg 38%
    16:00 +26°C° 0 mm 2 mps 751 mmHg 42%
    17:00 +25°C° 0 mm 2 mps 751 mmHg 46%
    18:00 +24°C° 0 mm 1 mps 751 mmHg 50%
    19:00 +23°C° 0 mm 1 mps 751 mmHg 52%
    20:00 +23°C° 0 mm 1 mps 751 mmHg 53%
    21:00 +22°C° 0 mm 1 mps 751 mmHg 55%
    22:00 +22°C° 0 mm 1 mps 751 mmHg 56%
    23:00 +22°C° 0 mm 1 mps 751 mmHg 57%

    Day after tomorrow, 19 October, Saturday

    Time Temperature Precipitation Wind Pressure Humidity
    00:00 +22°C° 0 mm 1 mps 750 mmHg 58%
    01:00 +21°C° 0 mm 1 mps 750 mmHg 59%
    02:00 +21°C° 0 mm 1 mps 749 mmHg 60%
    03:00 +21°C° 0 mm 1 mps 749 mmHg 60%
    04:00 +20°C° 0 mm 2 mps 749 mmHg 62%
    05:00 +19°C° 0 mm 2 mps 749 mmHg 63%
    06:00 +19°C° 0 mm 2 mps 749 mmHg 64%
    07:00 +21°C° 0 mm 3 mps 749 mmHg 58%
    08:00 +22°C° 0 mm 3 mps 749 mmHg 52%
    09:00 +25°C° 0 mm 4 mps 750 mmHg 46%
    10:00 +26°C° 0 mm 4 mps 750 mmHg 45%
    11:00 +27°C° 0 mm 5 mps 749 mmHg 44%
    12:00 +28°C° 0 mm 6 mps 749 mmHg 43%
    13:00 +27°C° 0 mm 5 mps 749 mmHg 45%
    14:00 +27°C° 0 mm 5 mps 748 mmHg 48%
    15:00 +27°C° 0 mm 5 mps 747 mmHg 50%
    16:00 +26°C° 0 mm 4 mps 747 mmHg 54%
    17:00 +25°C° 0 mm 4 mps 747 mmHg 59%
    18:00 +24°C° 0 mm 3 mps 747 mmHg 63%
    19:00 +24°C° 0 mm 3 mps 748 mmHg 64%
    20:00 +22°C° 0 mm 3 mps 748 mmHg 66%
    21:00 +22°C° 0 mm 4 mps 748 mmHg 68%
    22:00 +22°C° 0 mm 3 mps 748 mmHg 67%
    23:00 +22°C° 0 mm 3 mps 748 mmHg 67%

    20 October, Sunday

    Time Temperature Precipitation Wind Pressure Humidity
    00:00 +22°C° 0 mm 3 mps 748 mmHg 66%
    01:00 +22°C° 0 mm 3 mps 748 mmHg 65%
    02:00 +22°C° 0 mm 3 mps 747 mmHg 63%
    03:00 +22°C° 0 mm 3 mps 747 mmHg 61%
    04:00 +22°C° 0 mm 3 mps 747 mmHg 61%
    05:00 +22°C° 0 mm 3 mps 747 mmHg 61%
    06:00 +22°C° 0 mm 3 mps 747 mmHg 61%
    07:00 +24°C° 0 mm 3 mps 747 mmHg 59%
    08:00 +24°C° 0 mm 3 mps 748 mmHg 57%
    09:00 +25°C° 0 mm 2 mps 748 mmHg 56%
    10:00 +25°C° 0 mm 3 mps 748 mmHg 60%
    11:00 +25°C° 0 mm 4 mps 748 mmHg 64%
    12:00 +24°C° 0 mm 6 mps 748 mmHg 68%
    13:00 +25°C° 0 mm 5 mps 747 mmHg 68%
    14:00 +23°C° 0 mm 5 mps 747 mmHg 68%
    15:00 +23°C° 0 mm 5 mps 747 mmHg 68%
    16:00 +22°C° 0.3 mm 5 mps 748 mmHg 71%
    17:00 +21°C° 0.3 mm 5 mps 748 mmHg 74%
    18:00 +20°C° 0.3 mm 5 mps 748 mmHg 77%
    19:00 +20°C° 0.6 mm 5 mps 749 mmHg 75%
    20:00 +20°C° 0.6 mm 4 mps 749 mmHg 73%
    21:00 +20°C° 0.6 mm 4 mps 750 mmHg 72%
    22:00 +19°C° 0.3 mm 4 mps 750 mmHg 69%
    23:00 +19°C° 0.3 mm 4 mps 750 mmHg 67%

    21 October, Monday

    Time Temperature Precipitation Wind Pressure Humidity
    00:00 +19°C° 0.3 mm 4 mps 750 mmHg 65%
    01:00 +18°C° 0.9 mm 4 mps 750 mmHg 70%
    02:00 +17°C° 0.9 mm 3 mps 750 mmHg 75%
    03:00 +17°C° 0.9 mm 3 mps 750 mmHg 80%
    04:00 +17°C° 0.7 mm 2 mps 750 mmHg 79%
    05:00 +17°C° 0.7 mm 2 mps 750 mmHg 78%
    06:00 +17°C° 0.7 mm 2 mps 750 mmHg 76%
    07:00 +17°C° 0.2 mm 2 mps 750 mmHg 74%
    08:00 +18°C° 0.2 mm 1 mps 750 mmHg 71%
    09:00 +19°C° 0.2 mm 1 mps 750 mmHg 69%
    10:00 +18°C° 0.1 mm 2 mps 750 mmHg 67%
    11:00 +19°C° 0.1 mm 3 mps 750 mmHg 65%
    12:00 +20°C° 0.1 mm 4 mps 749 mmHg 63%
    13:00 +19°C° 0.1 mm 4 mps 749 mmHg 68%
    14:00 +19°C° 0.1 mm 4 mps 749 mmHg 74%
    15:00 +18°C° 0.1 mm 4 mps 748 mmHg 79%
    16:00 +17°C° 0.5 mm 5 mps 749 mmHg 81%
    17:00 +17°C° 0.5 mm 5 mps 749 mmHg 84%
    18:00 +17°C° 0.5 mm 5 mps 749 mmHg 86%
    19:00 +16°C° 1.3 mm 5 mps 749 mmHg 86%
    20:00 +16°C° 1.3 mm 5 mps 749 mmHg 87%
    21:00 +16°C° 1.3 mm 5 mps 749 mmHg 87%
    22:00 +15°C° 2.1 mm 6 mps 749 mmHg 87%
    23:00 +15°C° 2.1 mm 6 mps 748 mmHg 87%

    22 October, Tuesday

    Time Temperature Precipitation Wind Pressure Humidity
    00:00 +15°C° 2.1 mm 6 mps 748 mmHg 87%
    01:00 +14°C° 1 mm 5 mps 748 mmHg 85%
    02:00 +14°C° 1 mm 4 mps 747 mmHg 83%
    03:00 +14°C° 1 mm 4 mps 746 mmHg 81%
    04:00 +14°C° 0.6 mm 4 mps 746 mmHg 83%
    05:00 +14°C° 0.6 mm 4 mps 746 mmHg 84%
    06:00 +14°C° 0.6 mm 5 mps 745 mmHg 85%
    07:00 +14°C° 1.6 mm 6 mps 745 mmHg 88%
    08:00 +14°C° 1.6 mm 6 mps 745 mmHg 90%
    09:00 +14°C° 1.6 mm 7 mps 745 mmHg 92%
    10:00 +13°C° 1.7 mm 8 mps 744 mmHg 91%
    11:00 +13°C° 1.7 mm 9 mps 744 mmHg 90%
    12:00 +13°C° 1.7 mm 10 mps 743 mmHg 88%
    13:00 +13°C° 1 mm 10 mps 743 mmHg 88%
    14:00 +12°C° 1 mm 9 mps 743 mmHg 87%
    15:00 +12°C° 1 mm 9 mps 743 mmHg 86%
    16:00 +12°C° 1.4 mm 9 mps 743 mmHg 86%
    17:00 +12°C° 1.4 mm 9 mps 742 mmHg 86%
    18:00 +12°C° 1.4 mm 9 mps 742 mmHg 86%
    19:00 +13°C° 0.8 mm 9 mps 742 mmHg 79%
    20:00 +15°C° 0.8 mm 9 mps 742 mmHg 72%
    21:00 +15°C° 0.8 mm 9 mps 742 mmHg 65%
    22:00 +14°C° 0.2 mm 11 mps 742 mmHg 64%
    23:00 +14°C° 0.2 mm 13 mps 742 mmHg 63%
    Show more